Flight Track Log - Related Links

Times and Time Zones

All times are in EDT time to prevent confusion due to time zone crossing. See the UAL252 flight status page for this flight to view local times or setup timezone preferences in your user account.

Time Position Orientation Groundspeed Altitude Reporting Facility
EDT Latitude Longitude Course Direction KTS MPH feet Rate Location/Type
Thu 03:57:30 PM 41.9167 -87.8667 135° Southeast 184 212 3,100  Level Chicago TRACON
Thu 03:58:29 PM 41.8667 -87.8000 135° Southeast 256 295 5,400 2,857 Climbing Chicago TRACON
Thu 03:59:36 PM 41.8167 -87.7167 129° Southeast 289 333 9,100 3,160 Climbing Chicago TRACON
Thu 04:00:59 PM 41.8256 -87.5817 85° East 293 337 13,300 2,979 Climbing Chicago Center
Thu 04:02:01 PM 41.8597 -87.4486 71° East 316 364 16,300 2,468 Climbing Chicago Center
Thu 04:03:03 PM 41.8842 -87.3306 74° East 326 375 18,400 2,032 Climbing Chicago Center
Thu 04:04:05 PM 41.9153 -87.2047 72° East 353 406 20,500 1,839 Climbing Chicago Center
Thu 04:05:07 PM 41.9472 -87.0711 72° East 375 432 22,200 1,742 Climbing Chicago Center
Thu 04:06:09 PM 41.9489 -86.9197 89° East 408 470 24,100 1,839 Climbing Chicago Center
Thu 04:07:11 PM 41.9492 -86.7350 90° East 417 480 26,000 1,694 Climbing Chicago Center
Thu 04:08:13 PM 41.9528 -86.5789 88° East 429 494 27,600 1,452 Climbing Chicago Center
Thu 04:09:15 PM 41.9536 -86.4122 90° East 444 511 29,000 1,548 Climbing Chicago Center
Thu 04:10:17 PM 41.9533 -86.2447 90° East 449 517 30,800 1,742 Climbing Chicago Center
Thu 04:11:19 PM 41.9289 -86.0769 101° East 459 528 32,600 1,548 Climbing Chicago Center
Thu 04:12:21 PM 41.8964 -85.9128 105° East 456 525 34,000 1,152 Climbing Chicago Center
Thu 04:13:24 PM 41.8567 -85.7131 105° East 460 529 35,000 480 Climbing Chicago Center
Thu 04:14:26 PM 41.8233 -85.5436 105° East 466 536 35,000  Level Chicago Center
Thu 04:15:28 PM 41.7892 -85.3686 105° East 476 548 35,000 242 Level Chicago Center
Thu 04:16:30 PM 41.7533 -85.1961 106° East 472 543 35,500 968 Climbing Chicago Center
Thu 04:17:32 PM 41.7183 -85.0297 106° East 465 535 37,000 726 Climbing Chicago Center
Thu 04:18:34 PM 41.6842 -84.8653 105° East 458 527 37,000  Level Chicago Center
Thu 04:19:36 PM 41.6628 -84.7022 100° East 448 516 37,000  Level Chicago Center
Thu 04:20:38 PM 41.6564 -84.5394 93° East 441 507 37,000  Level Chicago Center
Thu 04:21:44 PM 41.6483 -84.3322 93° East 443 510 37,000  Level Cleveland Center
Thu 04:22:44 PM 41.6369 -84.1703 95° East 443 510 37,000  Level Cleveland Center
Thu 04:23:44 PM 41.6294 -84.0058 93° East 443 510 37,000  Level Cleveland Center
Thu 04:24:44 PM 41.6197 -83.8414 94° East 443 510 37,000  Level Cleveland Center
Thu 04:25:44 PM 41.6117 -83.6772 94° East 443 510 37,000  Level Cleveland Center
Thu 04:26:44 PM 41.5931 -83.5153 99° East 443 510 37,000  Level Cleveland Center
Thu 04:27:44 PM 41.5172 -83.3786 127° Southeast 429 494 37,000  Level Cleveland Center
Thu 04:28:44 PM 41.4453 -83.2453 126° Southeast 441 507 37,000  Level Cleveland Center
Thu 04:29:44 PM 41.3692 -83.1122 127° Southeast 447 514 37,000  Level Cleveland Center
Thu 04:30:44 PM 41.2928 -82.9792 127° Southeast 452 520 37,000  Level Cleveland Center
Thu 04:31:44 PM 41.2164 -82.8439 127° Southeast 452 520 37,000  Level Cleveland Center
Thu 04:32:44 PM 41.1397 -82.7117 128° Southeast 452 520 37,000 50 Level Cleveland Center
Thu 04:33:44 PM 41.0628 -82.5769 127° Southeast 452 520 37,100  Climbing Cleveland Center
Thu 04:36:12 PM 40.8856 -82.2706 127° Southeast 454 522 37,000 -57 Descending Indianapolis Center
Thu 04:37:14 PM 40.7969 -82.1181 127° Southeast 447 514 36,900  Descending Indianapolis Center
Thu 04:38:16 PM 40.7217 -81.9903 128° Southeast 441 507 37,000 48 Climbing Indianapolis Center
Thu 04:39:18 PM 40.6458 -81.8611 128° Southeast 443 510 37,000  Level Indianapolis Center
Thu 04:40:20 PM 40.5689 -81.7331 128° Southeast 444 511 37,000 48 Level Indianapolis Center
Thu 04:41:22 PM 40.4914 -81.6031 128° Southeast 449 517 37,100 48 Climbing Indianapolis Center
Thu 04:42:24 PM 40.4181 -81.4717 126° Southeast 444 511 37,100 -48 Level Indianapolis Center
Thu 04:43:26 PM 40.3633 -81.2981 112° Southeast 437 503 37,000 -48 Descending Indianapolis Center
Thu 04:44:28 PM 40.3175 -81.1494 112° Southeast 437 503 37,000  Level Indianapolis Center
Thu 04:45:30 PM 40.2728 -81.0019 112° Southeast 433 498 37,000  Level Indianapolis Center
Thu 04:46:32 PM 40.2278 -80.8581 112° Southeast 429 494 37,000  Level Indianapolis Center
Thu 04:47:34 PM 40.1825 -80.7136 112° Southeast 427 491 37,000  Level Indianapolis Center
Thu 04:48:37 PM 40.1389 -80.5697 112° Southeast 424 488 37,000  Level Indianapolis Center
Thu 04:49:39 PM 40.0928 -80.4269 113° Southeast 424 488 37,000  Level Indianapolis Center
Thu 04:50:44 PM 40.0375 -80.2522 112° Southeast 418 481 37,000 -144 Level Cleveland Center
Thu 04:51:44 PM 39.9933 -80.1117 112° Southeast 418 481 36,700 -600 Descending Cleveland Center
Thu 04:52:44 PM 39.9489 -79.9656 112° Southeast 418 481 35,800 -850 Descending Cleveland Center
Thu 04:53:44 PM 39.9019 -79.8228 113° Southeast 418 481 35,000 -400 Descending Cleveland Center
Thu 04:54:44 PM 39.8550 -79.6797 113° Southeast 418 481 35,000 -650 Level Cleveland Center
Thu 04:55:44 PM 39.8081 -79.5344 113° Southeast 424 488 33,700 -2,450 Descending Cleveland Center
Thu 04:56:44 PM 39.7586 -79.3842 113° Southeast 435 501 30,100 -4,078 Descending Cleveland Center
Thu 04:57:52 PM 39.7128 -79.2386 112° Southeast 440 506 25,000 -2,391 Descending Washington Center
Thu 04:58:52 PM 39.6650 -79.0906 113° Southeast 440 506 25,000  Level Washington Center
Thu 04:59:50 PM 39.6356 -78.9544 106° East 420 483 25,000 -303 Level Washington Center
Thu 05:00:51 PM 39.6000 -78.8100 108° East 389 448 24,400 -1,131 Descending Washington Center
Thu 05:01:52 PM 39.5719 -78.6822 106° East 377 434 22,700 -1,765 Descending Washington Center
Thu 05:02:50 PM 39.5439 -78.5572 106° East 366 421 20,900 -1,765 Descending Washington Center
Thu 05:03:51 PM 39.5156 -78.4322 106° East 366 421 19,200 -1,475 Descending Washington Center
Thu 05:04:52 PM 39.4892 -78.3131 106° East 366 421 17,900 -1,412 Descending Washington Center
Thu 05:05:50 PM 39.4644 -78.2044 106° East 344 396 16,400 -1,271 Descending Washington Center
Thu 05:06:50 PM 39.4608 -78.0861 92° East 329 379 15,400 -1,140 Descending Washington Center
Thu 05:07:51 PM 39.4589 -77.9703 91° East 323 372 14,100 -1,190 Descending Washington Center
Thu 05:08:51 PM 39.4547 -77.8575 93° East 318 366 13,000 -545 Descending Washington Center
Thu 05:09:52 PM 39.4528 -77.7472 91° East 308 354 13,000 -202 Level Washington Center
Thu 05:10:50 PM 39.4525 -77.6369 90° East 308 354 12,600 -555 Descending Washington Center
Thu 05:11:51 PM 39.4481 -77.5267 93° East 308 354 11,900 -645 Descending Washington Center
Thu 05:12:51 PM 39.4456 -77.4189 92° East 308 354 11,300 -466 Descending Washington Center
Thu 05:13:47 PM 39.4500 -77.3167 87° East 301 346 11,000 -148 Descending Potomac TRACON
Thu 05:14:53 PM 39.4667 -77.2000 79° East 302 348 11,000 -95 Level Potomac TRACON
Thu 05:15:53 PM 39.4833 -77.0833 79° East 302 348 10,800 -895 Descending Potomac TRACON
Thu 05:16:47 PM 39.4833 -76.9833 90° East 304 350 9,300 -1,947 Descending Potomac TRACON
Thu 05:17:47 PM 39.4333 -76.9167 134° Southeast 286 329 7,100 -2,300 Descending Potomac TRACON
Thu 05:18:47 PM 39.3667 -76.8833 159° South 278 320 4,700 -2,250 Descending Potomac TRACON
Thu 05:19:47 PM 39.3000 -76.8833 180° South 266 306 2,600 -2,100 Descending Potomac TRACON

Login

Don't have an account? Register now (free) for customized features, flight alerts, and more!